CAPE
7 17 29 6 11 34 27 0 2 18 0 0 0 0 20 12 13 50 89 56 41 60 43 21 0 2 0 0 0 0 0 0 1 0 0 0 0 0 0 0 0 0 0
16 14 10 3 1 19 31 4 1 15 1 0 0 0 9 31 32 34 34 5 2 0 0 0 0 0 0 0 0 0 0 0 0 0 0 0 0 4 16 24 18 0 15
18 3 1 9 4 1 0 17 15 10 11 4 0 0 0 3 25 28 21 11 0 0 0 0 0 1 1 1 0 0 0 3 19 25 16 9 13 8 1 11 12 16 34
17 3 5 19 9 1 18 19 21 10 17 4 0 1 1 0 0 0 3 13 11 2 4 5 2 1 2 1 0 0 0 0 0 0 0 0 0 0 1 11 20 50 58
11 7 12 33 46 30 47 21 18 12 5 1 1 3 4 0 0 0 0 5 19 15 0 4 9 0 0 1 0 0 0 0 0 0 0 0 0 4 23 48 61 67 89
10 18 15 51 40 29 31 20 6 0 0 0 1 4 6 0 0 0 0 0 2 16 19 21 13 0 0 0 0 0 0 32 42 13 17 17 59 67 61 67 70 66 27
16 14 21 14 36 18 17 17 0 1 1 0 0 0 0 0 0 0 0 6 27 23 12 6 2 0 0 0 0 0 3 0 0 20 51 71 64 82 63 64 92 89 108
25 34 48 37 0 24 36 22 15 11 8 7 5 0 0 0 0 0 0 2 6 0 0 1 0 6 4 0 5 19 19 17 21 23 40 57 61 56 44 26 37 41 64
32 51 49 26 24 0 0 35 50 35 33 26 0 0 0 0 0 0 0 13 23 36 33 25 11 7 0 0 11 8 6 14 0 0 0 0 0 0 0 5 46 47 25
39 41 46 44 35 4 0 0 31 50 35 5 0 0 0 0 0 0 0 0 11 8 14 7 0 0 0 0 0 0 0 0 0 0 0 0 0 0 0 0 0 0 0
43 41 44 44 24 30 0 0 0 1 22 26 9 0 0 0 0 0 0 0 0 0 4 5 7 0 0 0 0 0 0 0 0 0 0 0 0 0 0 0 0 0 0
47 37 43 49 39 42 22 0 0 0 0 0 0 0 0 0 0 0 0 0 0 0 0 0 0 0 0 0 0 0 0 0 0 0 0 0 0 0 0 0 0 0 0
37 57 23 52 32 43 31 14 0 0 0 0 0 0 0 0 0 0 0 0 0 0 0 0 0 0 0 0 0 0 0 0 0 0 0 0 0 0 0 0 0 0 0
50 63 42 45 35 32 51 25 0 0 0 0 0 0 0 0 0 0 0 0 0 0 0 0 0 0 0 0 0 0 0 0 0 0 0 0 0 0 0 0 0 0 0
49 44 33 35 45 56 42 12 12 0 0 0 0 0 0 0 0 0 0 0 0 0 0 0 0 0 0 0 0 0 0 0 0 0 0 0 0 0 0 0 0 0 0
29 20 35 41 53 56 21 18 1 0 0 0 0 0 0 0 0 0 0 0 0 0 0 0 0 0 0 0 0 0 0 0 0 0 0 0 0 0 0 0 0 0 0
18 34 37 34 55 39 26 16 7 3 0 0 0 0 0 0 0 0 0 0 0 0 0 0 0 0 0 0 0 0 0 0 0 0 0 0 0 0 0 0 0 0 0
12 2 3 36 60 53 31 21 7 2 0 0 0 0 0 0 0 0 0 0 0 0 0 0 0 0 0 0 0 0 0 0 0 0 0 0 0 0 0 0 0 0 0
15 12 33 54 63 31 13 18 2 0 0 0 0 0 0 0 0 0 0 0 0 0 0 0 0 0 0 0 0 0 0 0 0 0 0 0 0 0 0 0 0 0 0
10 0 3 34 57 37 39 14 10 0 0 0 0 0 0 0 0 0 0 0 0 0 0 0 0 0 0 0 0 0 0 0 0 0 0 0 0 0 0 0 0 0 0
6 32 28 43 52 53 43 31 10 0 0 0 0 0 0 0 0 0 0 0 0 0 0 0 0 0 0 0 0 0 0 0 0 0 0 0 0 0 0 0 0 0 0
10 20 19 43 52 48 50 62 52 31 5 0 0 0 0 0 0 0 0 0 0 0 0 0 0 0 0 0 0 0 0 0 0 0 0 0 0 0 0 0 0 0 0
12 20 16 34 49 48 42 46 62 62 48 42 15 0 0 0 0 0 0 0 0 0 0 0 0 0 0 0 0 0 0 0 0 0 0 0 0 0 0 0 0 0 0
26 28 28 37 44 56 44 48 56 47 26 34 26 13 0 0 0 0 0 0 0 0 0 0 0 0 0 0 0 0 0 0 0 0 0 0 0 0 0 0 0 0 0
0 26 26 26 38 42 49 34 39 52 45 26 7 4 1 0 0 0 0 0 0 0 0 0 0 0 0 0 0 0 0 0 0 0 0 0 0 0 0 0 0 0 0
1 10 35 41 27 32 51 33 33 51 57 51 51 38 31 9 0 0 0 0 0 0 0 0 0 0 0 0 0 0 0 0 0 0 0 0 0 0 0 0 0 0 0
CIN
-14 -2 -1 -19 -9 0 0 -1 -1 0 0 0 0 0 -19 -38 -37 -16 -6 -11 -24 -13 -15 -18 0 -7 0 0 0 0 0 0 0 0 0 0 0 0 0 0 0 0 0
-12 -22 -24 -44 -3 -7 -4 -19 0 -2 0 0 0 0 -11 -16 -20 -16 -11 -49 -61 -65 -2 -1 0 0 0 0 0 0 0 0 0 0 0 0 0 -19 -17 -14 -7 0 -11
-11 -43 -51 -35 -31 -34 -3 -23 -15 -10 -4 0 0 0 0 -10 -3 -8 -5 -10 0 0 0 0 0 0 0 0 0 0 0 -7 -12 -4 -1 -16 -11 -19 -3 -10 -23 -20 -22
-9 -43 -46 -23 -30 -31 -19 -23 -16 -9 0 0 0 0 0 0 0 0 -3 -4 -1 0 0 0 0 0 0 0 0 0 0 0 0 0 0 0 0 0 -4 -18 -5 -6 -11
-14 -30 -34 -8 -4 -8 -2 -24 -16 -6 0 -1 0 0 0 0 0 0 0 -3 0 -1 0 -1 -2 0 0 -3 0 0 0 0 0 0 0 0 0 -3 -4 -11 -11 -12 -4
-13 -17 -33 -7 -11 -11 -11 -15 -23 0 0 0 0 0 0 0 0 0 0 0 -4 -6 -6 -16 -29 0 0 0 0 0 -4 -19 -10 -15 -10 -10 -11 -17 -20 -19 -21 -8 -6
-19 -24 -13 -44 -21 -29 -25 -21 0 -13 -13 0 0 0 0 0 0 0 0 -26 -17 -21 -31 -36 -23 0 0 0 -8 0 -23 0 0 -56 -25 -17 -27 -22 -39 -33 -20 -26 -13
-12 -16 -16 -22 -3 -32 -21 -27 -36 -39 -46 -51 -26 0 0 0 0 0 0 -21 -42 -29 0 -36 0 -56 -76 0 -48 -37 -38 -52 -67 -75 -65 -49 -44 -51 -67 -84 -76 -79 -50
-10 -13 -18 -26 -35 0 0 -34 -22 -23 -26 -39 -9 0 0 0 0 0 0 -51 -38 -34 -44 -44 -48 -50 0 0 -49 -31 -23 -21 0 0 0 0 0 0 0 -55 -25 -12 -3
-16 -27 -25 -25 -31 -27 0 0 -36 -25 -25 -42 0 0 0 0 0 0 0 0 -33 -28 -34 -37 0 0 0 0 0 0 0 0 0 0 0 0 0 0 0 0 0 0 0
-28 -36 -36 -40 -50 -62 -11 0 0 -11 -29 -27 -34 0 0 0 0 0 0 0 0 0 -16 -15 -27 0 0 0 0 0 0 0 0 0 0 0 0 0 0 0 0 0 0
-30 -38 -36 -38 -39 -52 -72 0 0 0 0 0 0 0 0 0 0 0 0 0 0 0 0 0 0 0 0 0 0 0 0 0 0 0 0 0 0 0 0 0 0 0 0
-29 -31 -45 -40 -49 -44 -68 -69 0 0 0 0 0 0 0 0 0 0 0 0 0 0 0 0 0 0 0 0 0 0 0 0 0 0 0 0 0 0 0 0 0 0 0
-22 -26 -37 -37 -38 -46 -46 -71 0 0 0 0 0 0 0 0 0 0 0 0 0 0 0 0 0 0 0 0 0 0 0 0 0 0 0 0 0 0 0 0 0 0 0
-21 -27 -34 -45 -39 -27 -37 -67 -73 0 0 0 0 0 0 0 0 0 0 0 0 0 0 0 0 0 0 0 0 0 0 0 0 0 0 0 0 0 0 0 0 0 0
-24 -44 -25 -25 -20 -22 -29 -41 -72 0 0 0 0 0 0 0 0 0 0 0 0 0 0 0 0 0 0 0 0 0 0 0 0 0 0 0 0 0 0 0 0 0 0
-23 -19 -17 -27 -16 -27 -38 -32 -28 -25 0 0 0 0 0 0 0 0 0 0 0 0 0 0 0 0 0 0 0 0 0 0 0 0 0 0 0 0 0 0 0 0 0
-23 -28 -35 -24 -18 -26 -28 -40 -43 -25 0 0 0 0 0 0 0 0 0 0 0 0 0 0 0 0 0 0 0 0 0 0 0 0 0 0 0 0 0 0 0 0 0
-12 -15 -12 -12 -16 -38 -54 -50 -37 0 0 0 0 0 0 0 0 0 0 0 0 0 0 0 0 0 0 0 0 0 0 0 0 0 0 0 0 0 0 0 0 0 0
-15 0 -35 -24 -12 -40 -18 -40 -31 0 0 0 0 0 0 0 0 0 0 0 0 0 0 0 0 0 0 0 0 0 0 0 0 0 0 0 0 0 0 0 0 0 0
-10 -3 -25 -20 -11 -22 -18 -32 -28 0 0 0 0 0 0 0 0 0 0 0 0 0 0 0 0 0 0 0 0 0 0 0 0 0 0 0 0 0 0 0 0 0 0
-5 -2 -3 -2 -10 -24 -18 -12 -17 -17 -21 0 0 0 0 0 0 0 0 0 0 0 0 0 0 0 0 0 0 0 0 0 0 0 0 0 0 0 0 0 0 0 0
-10 -4 -2 -2 -6 -24 -25 -20 -8 -8 -7 -14 -16 0 0 0 0 0 0 0 0 0 0 0 0 0 0 0 0 0 0 0 0 0 0 0 0 0 0 0 0 0 0
-7 -9 -6 -4 -3 -3 -4 -3 -7 -13 -14 -6 -8 -24 0 0 0 0 0 0 0 0 0 0 0 0 0 0 0 0 0 0 0 0 0 0 0 0 0 0 0 0 0
-2 -6 -5 -5 -5 -9 -11 -5 -3 -2 -20 -16 -46 -46 -10 0 0 0 0 0 0 0 0 0 0 0 0 0 0 0 0 0 0 0 0 0 0 0 0 0 0 0 0
-21 -26 -10 -7 -2 -4 -2 -2 -2 -3 -4 -3 -10 -12 -13 -19 0 0 0 0 0 0 0 0 0 0 0 0 0 0 0 0 0 0 0 0 0 0 0 0 0 0 0
Wind_Speed
19 17 17 16 14 16 17 18 16 13 11 8 6 6 7 7 7 5 4 5 5 6 7 7 7 8 9 10 12 13 15 16 16 13 7 6 13 12 12 12 11 11 10
15 14 15 12 13 15 16 15 15 14 12 11 9 9 9 8 9 8 8 8 9 10 11 12 12 12 12 13 14 13 13 13 15 15 15 15 14 12 11 10 11 10 9
11 9 6 7 10 11 13 14 13 12 12 11 11 12 12 11 12 12 11 10 9 10 10 11 12 13 12 13 15 16 14 14 14 14 14 14 14 13 12 14 13 14 12
10 4 3 3 6 8 10 11 12 11 11 12 13 13 13 13 13 12 11 11 10 10 11 11 12 13 14 16 17 15 14 14 14 14 15 15 14 13 11 10 10 14 15
4 3 2 2 5 8 10 10 11 13 14 14 14 13 13 13 13 13 13 13 13 14 14 14 14 14 15 16 16 16 16 16 15 15 15 15 13 12 10 10 8 8 12
7 5 3 3 6 9 11 13 15 16 16 15 14 14 14 14 13 13 14 15 15 14 15 15 15 15 16 15 15 15 14 14 13 13 13 12 10 9 9 8 8 8 12
8 6 4 4 7 10 12 13 15 15 14 13 13 13 13 13 12 14 15 16 15 15 15 15 15 15 15 14 14 14 13 13 12 11 10 10 8 8 6 6 8 8 7
10 8 7 6 6 9 11 12 12 11 11 12 11 11 12 12 11 14 15 16 15 15 16 15 14 14 14 12 11 10 10 10 10 11 10 8 7 6 5 5 5 5 5
11 9 7 7 8 8 10 10 11 10 11 12 12 11 11 12 9 11 14 15 14 14 14 14 12 12 11 10 10 9 8 9 9 10 10 8 6 6 6 7 9 9 10
12 10 8 7 6 7 9 9 10 11 12 12 12 12 11 11 11 9 10 12 12 11 12 12 11 11 10 9 9 8 6 6 8 9 9 10 10 12 16 13 12 10 9
15 13 11 10 8 8 8 9 10 11 12 13 13 12 12 12 12 11 10 11 10 9 9 12 10 9 11 11 10 8 8 8 9 9 8 11 14 15 16 16 15 15 15
17 16 15 13 11 11 10 12 11 11 11 14 14 14 14 13 13 13 12 11 11 12 11 10 11 12 13 11 11 10 10 10 10 10 12 14 15 15 17 17 18 17 16
19 19 18 17 16 14 14 13 14 13 12 12 14 15 15 14 14 15 14 14 13 13 12 12 12 12 11 13 16 15 14 14 13 14 16 17 16 16 15 17 17 20 17
21 21 21 20 19 18 18 17 16 15 15 13 13 15 15 15 14 15 15 15 14 13 13 12 12 12 13 14 13 16 18 19 16 15 15 16 17 17 18 19 20 23 22
22 22 22 23 22 21 20 21 20 19 18 17 16 16 16 16 16 16 16 16 15 12 11 10 10 10 11 13 14 16 17 17 17 16 15 16 18 18 19 19 21 23 23
24 24 24 24 24 24 24 23 22 23 22 22 21 20 20 21 20 20 20 20 20 11 9 8 8 11 14 17 18 17 17 17 17 16 16 17 18 19 20 19 21 23 24
22 25 25 26 26 26 26 26 24 22 23 26 26 25 25 25 25 24 23 23 21 17 12 12 12 14 16 18 20 20 20 19 17 18 18 18 19 20 19 20 21 23 24
21 25 26 27 26 27 26 27 26 24 24 22 21 21 22 23 23 22 21 21 20 18 17 15 14 16 17 19 22 22 21 20 20 19 18 19 20 20 20 20 20 22 24
17 21 22 24 26 27 28 28 24 24 23 24 24 20 19 20 20 19 17 19 21 20 18 16 16 17 18 20 21 21 21 21 20 20 19 20 21 21 21 20 19 20 22
19 20 22 25 26 26 26 26 23 22 23 23 24 22 19 19 19 19 18 19 20 20 18 17 17 18 19 20 21 21 20 20 20 20 20 19 20 21 22 20 20 21 22
21 21 21 23 25 25 26 25 23 24 23 24 24 22 19 21 22 21 20 19 19 19 19 18 18 19 20 20 20 20 20 20 20 20 20 19 20 21 22 19 19 20 21
20 21 22 23 23 25 24 24 24 23 23 23 23 21 20 19 21 21 21 20 18 18 18 17 18 19 20 20 21 21 21 21 20 19 19 19 19 21 21 20 18 19 20
18 22 22 23 24 25 26 22 22 24 24 22 22 22 20 21 21 21 21 20 18 17 17 16 17 17 18 19 20 20 21 21 20 19 18 19 19 19 19 19 19 19 20
24 21 21 23 24 24 24 27 24 23 24 23 22 22 21 20 19 19 19 19 18 17 16 16 16 16 16 17 18 19 19 19 19 19 18 18 18 16 17 17 18 19 17
24 24 22 21 23 24 25 24 26 23 22 21 22 21 23 20 20 19 18 17 17 16 15 15 15 15 13 14 17 19 19 19 18 19 18 17 16 14 15 16 16 17 17
21 22 23 23 21 21 22 23 22 24 24 24 25 25 24 23 22 19 17 16 16 16 15 15 14 13 13 13 14 17 18 18 18 18 17 15 14 14 14 15 14 15 17
Wind_Direction
47 53 58 64 68 67 71 76 86 98 115 146 196 213 226 247 218 238 274 260 280 285 287 286 267 257 271 264 270 267 250 241 234 22 221 226 184 140 126 120 127 126 119
64 71 70 77 76 77 80 89 90 99 113 124 142 158 178 183 194 192 196 201 196 193 195 199 207 217 221 223 224 234 224 205 189 176 181 169 160 155 153 137 117 111 112
84 88 92 95 91 92 90 95 103 105 111 126 135 142 152 160 163 164 168 178 188 194 200 202 197 196 199 194 183 174 181 181 180 179 167 153 144 127 111 84 85 66 69
99 130 122 105 109 108 109 107 107 111 118 128 135 142 150 153 157 164 171 173 177 178 178 179 178 176 170 165 164 170 174 173 167 156 140 129 124 105 116 116 100 69 57
174 204 166 115 116 124 120 119 118 115 117 121 130 138 147 154 161 162 161 160 159 158 158 158 159 162 160 161 158 151 146 142 141 139 131 126 120 118 118 105 115 96 75
244 240 205 157 117 123 122 122 119 117 117 120 125 132 137 145 154 157 157 154 154 154 153 153 153 152 151 152 152 153 152 145 144 142 135 137 141 139 125 115 104 97 81
249 240 221 180 140 126 126 129 126 123 124 126 130 134 138 145 156 156 156 154 155 154 156 154 151 151 152 151 149 147 147 150 152 153 150 148 151 134 140 128 101 93 95
244 238 221 198 167 142 137 137 142 143 140 141 141 144 146 149 158 157 157 155 154 155 153 153 151 150 151 158 159 156 152 150 143 145 149 155 156 154 135 124 124 108 96
244 233 224 215 179 166 158 161 158 155 156 155 155 153 152 152 162 164 161 158 160 160 161 161 163 165 164 172 172 171 168 151 142 138 139 147 143 123 115 97 81 72 63
246 230 217 215 194 189 194 188 182 177 172 169 173 173 177 178 176 183 179 173 172 178 179 177 175 182 188 180 166 166 179 171 155 141 123 111 101 91 80 86 76 64 56
246 236 234 240 228 216 220 197 199 197 192 190 190 188 188 190 192 197 202 192 198 198 182 175 182 189 157 148 141 145 142 144 130 124 115 91 82 75 69 65 60 57 52
254 251 252 252 248 245 239 225 215 210 210 209 209 206 205 209 207 208 218 211 209 190 189 180 161 148 131 128 121 121 116 111 104 96 85 76 72 64 55 51 48 48 45
265 266 261 263 263 260 262 247 226 225 232 226 217 218 219 221 217 221 225 223 208 189 182 163 144 138 127 100 78 83 83 77 76 70 62 57 55 52 50 45 42 36 36
273 271 272 274 272 268 272 268 245 232 236 242 243 235 229 227 233 244 238 223 205 176 152 133 118 106 92 84 81 63 53 52 57 59 55 50 46 43 40 34 31 26 29
289 281 277 281 277 277 277 277 265 245 243 254 261 264 255 254 276 273 265 249 228 167 157 127 116 98 86 68 62 57 51 48 46 46 47 43 38 36 34 32 28 25 25
291 292 287 285 285 282 284 285 280 258 264 244 261 274 284 259 263 276 283 285 297 58 84 95 88 63 46 34 32 34 37 36 35 37 37 35 31 28 28 29 27 23 23
307 294 293 294 289 285 287 289 289 299 289 265 266 269 274 265 275 280 298 306 327 351 19 20 27 24 19 16 11 13 17 22 29 29 29 27 25 24 25 24 23 22 21
308 301 297 296 295 289 291 292 293 297 300 304 307 308 308 307 305 312 323 330 338 348 350 357 4 7 6 3 357 1 7 13 17 20 22 22 20 20 19 20 22 20 18
315 309 310 309 299 294 294 297 299 301 300 305 311 315 318 319 319 324 335 332 331 339 346 352 353 355 356 354 353 357 3 7 11 14 17 17 16 16 16 18 20 21 20
308 307 307 305 299 299 302 304 302 308 307 307 312 312 318 323 324 326 328 329 331 333 339 345 347 348 350 350 351 355 360 4 7 9 11 13 14 14 13 16 18 17 16
303 302 303 305 301 302 301 304 307 304 308 308 310 317 320 319 317 321 325 330 332 332 332 334 338 341 345 350 352 353 356 359 2 5 8 11 12 11 12 16 17 19 18
299 299 299 299 302 299 304 304 306 311 310 311 312 317 323 323 322 321 321 325 330 336 337 336 334 338 343 346 348 350 352 355 359 2 4 8 10 10 13 16 20 20 19
297 295 296 296 296 299 296 304 310 309 312 315 315 314 319 322 322 324 326 327 329 332 337 340 339 339 342 346 348 349 351 353 356 360 2 4 7 10 13 17 18 18 18
294 292 290 292 293 297 298 293 299 308 310 308 312 314 316 319 323 326 328 331 331 331 334 338 340 340 343 346 349 352 353 355 357 359 1 2 5 12 15 18 18 18 22
294 291 290 289 288 292 295 298 295 298 304 309 314 317 318 322 318 320 326 331 334 335 335 336 338 340 342 345 347 350 353 356 358 358 1 3 6 13 13 14 16 19 22
295 295 290 291 289 290 293 296 298 296 297 300 303 307 311 315 317 319 320 324 330 335 337 339 340 343 344 345 348 351 354 356 357 359 1 5 10 10 11 13 17 20 19